When you browse on this site, cookies collect data to enhance your experience and personalize the content and advertising you see.
Visit our Privacy Policy to learn more. By continuing to use the site, you agree to this use of cookies and data.
  • In United Kingdom
  • List of Countries
  • For 7 days
  • Water Temperature
  • Weather Map
  • Weather Widgets
  • user-avatar
    Login

    Hourly Weather Shapran

    Today, 19 August, Monday

    Time Temperature Precipitation Wind Pressure Humidity
    00:00 +19°C° 0 mm 2 mps 745 mmHg 74%
    01:00 +19°C° 0 mm 2 mps 746 mmHg 77%
    02:00 +18°C° 0 mm 2 mps 746 mmHg 79%
    03:00 +18°C° 0 mm 2 mps 746 mmHg 81%
    04:00 +18°C° 0 mm 2 mps 746 mmHg 82%
    05:00 +18°C° 0 mm 2 mps 746 mmHg 82%
    06:00 +18°C° 0 mm 3 mps 747 mmHg 82%
    07:00 +19°C° 0 mm 3 mps 747 mmHg 77%
    08:00 +21°C° 0 mm 3 mps 747 mmHg 73%
    09:00 +22°C° 0 mm 3 mps 747 mmHg 68%
    10:00 +24°C° 0 mm 3 mps 747 mmHg 63%
    11:00 +26°C° 0 mm 3 mps 748 mmHg 58%
    12:00 +27°C° 0 mm 3 mps 748 mmHg 53%
    13:00 +27°C° 0.2 mm 3 mps 748 mmHg 57%
    14:00 +26°C° 0.2 mm 3 mps 748 mmHg 60%
    15:00 +26°C° 0.2 mm 3 mps 748 mmHg 64%
    16:00 +25°C° 0.1 mm 3 mps 748 mmHg 66%
    17:00 +25°C° 0.1 mm 4 mps 748 mmHg 68%
    18:00 +25°C° 0.1 mm 4 mps 748 mmHg 70%
    19:00 +24°C° 0 mm 3 mps 748 mmHg 75%
    20:00 +21°C° 0 mm 3 mps 748 mmHg 80%
    21:00 +20°C° 0 mm 3 mps 749 mmHg 85%
    22:00 +20°C° 0 mm 3 mps 749 mmHg 85%
    23:00 +20°C° 0 mm 3 mps 749 mmHg 85%

    Tomorrow, 20 August, Tuesday

    Time Temperature Precipitation Wind Pressure Humidity
    00:00 +20°C° 0 mm 2 mps 749 mmHg 86%
    01:00 +19°C° 0 mm 3 mps 749 mmHg 86%
    02:00 +19°C° 0 mm 3 mps 749 mmHg 85%
    03:00 +19°C° 0 mm 3 mps 749 mmHg 85%
    04:00 +19°C° 0 mm 3 mps 749 mmHg 84%
    05:00 +19°C° 0 mm 3 mps 749 mmHg 84%
    06:00 +19°C° 0 mm 3 mps 749 mmHg 83%
    07:00 +20°C° 0 mm 4 mps 749 mmHg 77%
    08:00 +22°C° 0 mm 4 mps 750 mmHg 72%
    09:00 +25°C° 0 mm 5 mps 750 mmHg 66%
    10:00 +26°C° 0 mm 5 mps 750 mmHg 62%
    11:00 +28°C° 0 mm 5 mps 750 mmHg 58%
    12:00 +29°C° 0 mm 5 mps 749 mmHg 53%
    13:00 +30°C° 0 mm 5 mps 749 mmHg 52%
    14:00 +30°C° 0 mm 5 mps 749 mmHg 51%
    15:00 +32°C° 0 mm 5 mps 749 mmHg 50%
    16:00 +30°C° 0 mm 5 mps 749 mmHg 53%
    17:00 +30°C° 0 mm 4 mps 749 mmHg 55%
    18:00 +29°C° 0 mm 4 mps 749 mmHg 58%
    19:00 +28°C° 0 mm 4 mps 749 mmHg 63%
    20:00 +26°C° 0 mm 4 mps 749 mmHg 67%
    21:00 +25°C° 0 mm 4 mps 750 mmHg 71%
    22:00 +23°C° 0 mm 4 mps 750 mmHg 73%
    23:00 +22°C° 0 mm 4 mps 750 mmHg 74%

    Day after tomorrow, 21 August, Wednesday

    Time Temperature Precipitation Wind Pressure Humidity
    00:00 +22°C° 0 mm 4 mps 750 mmHg 76%
    01:00 +21°C° 0 mm 4 mps 750 mmHg 77%
    02:00 +21°C° 0 mm 4 mps 750 mmHg 77%
    03:00 +21°C° 0 mm 4 mps 750 mmHg 78%
    04:00 +20°C° 0 mm 4 mps 750 mmHg 78%
    05:00 +20°C° 0 mm 4 mps 750 mmHg 78%
    06:00 +20°C° 0 mm 4 mps 750 mmHg 78%
    07:00 +21°C° 0 mm 5 mps 750 mmHg 74%
    08:00 +23°C° 0 mm 5 mps 750 mmHg 70%
    09:00 +24°C° 0 mm 6 mps 750 mmHg 66%
    10:00 +27°C° 0 mm 6 mps 750 mmHg 62%
    11:00 +28°C° 0 mm 6 mps 750 mmHg 58%
    12:00 +30°C° 0 mm 6 mps 750 mmHg 54%
    13:00 +32°C° 0 mm 5 mps 749 mmHg 52%
    14:00 +33°C° 0 mm 5 mps 749 mmHg 50%
    15:00 +33°C° 0 mm 5 mps 749 mmHg 48%
    16:00 +33°C° 0 mm 5 mps 749 mmHg 51%
    17:00 +32°C° 0 mm 4 mps 749 mmHg 55%
    18:00 +30°C° 0 mm 4 mps 749 mmHg 58%
    19:00 +29°C° 0 mm 4 mps 749 mmHg 62%
    20:00 +27°C° 0 mm 4 mps 749 mmHg 67%
    21:00 +26°C° 0 mm 5 mps 749 mmHg 71%
    22:00 +25°C° 0 mm 4 mps 749 mmHg 70%
    23:00 +25°C° 0 mm 4 mps 749 mmHg 70%

    22 August, Thursday

    Time Temperature Precipitation Wind Pressure Humidity
    00:00 +23°C° 0 mm 4 mps 749 mmHg 69%
    01:00 +23°C° 0 mm 4 mps 749 mmHg 70%
    02:00 +22°C° 0 mm 4 mps 749 mmHg 71%
    03:00 +21°C° 0 mm 3 mps 749 mmHg 71%
    04:00 +21°C° 0 mm 3 mps 749 mmHg 72%
    05:00 +21°C° 0 mm 3 mps 749 mmHg 73%
    06:00 +20°C° 0 mm 3 mps 749 mmHg 73%
    07:00 +22°C° 0 mm 3 mps 749 mmHg 68%
    08:00 +25°C° 0 mm 3 mps 749 mmHg 62%
    09:00 +27°C° 0 mm 4 mps 749 mmHg 57%
    10:00 +28°C° 0 mm 4 mps 749 mmHg 52%
    11:00 +30°C° 0 mm 4 mps 749 mmHg 47%
    12:00 +33°C° 0 mm 4 mps 749 mmHg 43%
    13:00 +33°C° 0 mm 4 mps 749 mmHg 41%
    14:00 +34°C° 0 mm 4 mps 749 mmHg 40%
    15:00 +34°C° 0 mm 4 mps 748 mmHg 38%
    16:00 +33°C° 0 mm 3 mps 748 mmHg 41%
    17:00 +31°C° 0 mm 3 mps 748 mmHg 44%
    18:00 +31°C° 0 mm 3 mps 748 mmHg 46%
    19:00 +29°C° 0 mm 3 mps 748 mmHg 50%
    20:00 +27°C° 0 mm 3 mps 748 mmHg 53%
    21:00 +25°C° 0 mm 2 mps 748 mmHg 56%
    22:00 +25°C° 0 mm 3 mps 748 mmHg 59%
    23:00 +24°C° 0 mm 3 mps 748 mmHg 61%

    23 August, Friday

    Time Temperature Precipitation Wind Pressure Humidity
    00:00 +24°C° 0 mm 3 mps 748 mmHg 63%
    01:00 +22°C° 0 mm 3 mps 748 mmHg 64%
    02:00 +23°C° 0 mm 2 mps 748 mmHg 66%
    03:00 +21°C° 0 mm 2 mps 749 mmHg 68%
    04:00 +21°C° 0 mm 2 mps 749 mmHg 69%
    05:00 +21°C° 0 mm 2 mps 748 mmHg 71%
    06:00 +20°C° 0 mm 2 mps 748 mmHg 72%
    07:00 +23°C° 0 mm 2 mps 749 mmHg 66%
    08:00 +25°C° 0 mm 2 mps 749 mmHg 60%
    09:00 +27°C° 0 mm 2 mps 749 mmHg 54%
    10:00 +28°C° 0 mm 2 mps 749 mmHg 49%
    11:00 +30°C° 0 mm 2 mps 749 mmHg 45%
    12:00 +31°C° 0 mm 2 mps 749 mmHg 41%
    13:00 +32°C° 0 mm 2 mps 748 mmHg 39%
    14:00 +32°C° 0 mm 2 mps 748 mmHg 38%
    15:00 +32°C° 0 mm 2 mps 748 mmHg 36%
    16:00 +32°C° 0 mm 2 mps 748 mmHg 39%
    17:00 +32°C° 0 mm 2 mps 748 mmHg 41%
    18:00 +31°C° 0 mm 2 mps 748 mmHg 44%
    19:00 +29°C° 0 mm 2 mps 747 mmHg 47%
    20:00 +28°C° 0 mm 2 mps 747 mmHg 51%
    21:00 +26°C° 0 mm 1 mps 747 mmHg 54%
    22:00 +25°C° 0 mm 1 mps 747 mmHg 56%
    23:00 +25°C° 0 mm 1 mps 747 mmHg 57%

    24 August, Saturday

    Time Temperature Precipitation Wind Pressure Humidity
    00:00 +24°C° 0 mm 1 mps 747 mmHg 59%
    01:00 +24°C° 0 mm 1 mps 747 mmHg 59%
    02:00 +24°C° 0 mm 1 mps 747 mmHg 60%
    03:00 +24°C° 0 mm 1 mps 747 mmHg 60%
    04:00 +23°C° 0.1 mm 1 mps 747 mmHg 65%
    05:00 +23°C° 0.1 mm 2 mps 747 mmHg 69%
    06:00 +21°C° 0.1 mm 2 mps 747 mmHg 74%
    07:00 +22°C° 0 mm 3 mps 747 mmHg 73%
    08:00 +23°C° 0 mm 4 mps 747 mmHg 73%
    09:00 +25°C° 0 mm 5 mps 747 mmHg 72%
    10:00 +24°C° 0 mm 6 mps 747 mmHg 70%
    11:00 +24°C° 0 mm 7 mps 748 mmHg 69%
    12:00 +24°C° 0 mm 7 mps 748 mmHg 67%
    13:00 +24°C° 0 mm 7 mps 748 mmHg 62%
    14:00 +26°C° 0 mm 7 mps 748 mmHg 57%
    15:00 +26°C° 0 mm 7 mps 748 mmHg 52%
    16:00 +24°C° 0 mm 7 mps 749 mmHg 53%
    17:00 +22°C° 0 mm 7 mps 749 mmHg 55%
    18:00 +21°C° 0 mm 7 mps 749 mmHg 57%
    19:00 +20°C° 0 mm 6 mps 750 mmHg 61%
    20:00 +17°C° 0 mm 6 mps 750 mmHg 65%
    21:00 +16°C° 0 mm 5 mps 750 mmHg 69%
    22:00 +16°C° 0 mm 5 mps 751 mmHg 71%
    23:00 +16°C° 0 mm 5 mps 751 mmHg 74%
    Show more